CW8484 Weather Reports


Display with metric or nautical units.
time (UTC)temp
F
wind
direction
speed
MPH
gust
MPH
rain 1hr
in
rain 24hr
in
rain mn
in
humidity
%
barometer
mb
20260906095403 54 360 0.0 0.0 0.00 0.01 0.00 94 1014.9
20260906094403 54 360 0.0 0.0 0.00 0.01 0.00 94 1014.8
20260906093403 54 360 0.0 0.0 0.00 0.01 0.00 94 1014.6
20260906092403 54 360 0.0 0.0 0.00 0.01 0.00 94 1014.7
20260906091424 54 360 0.0 0.0 0.00 0.01 0.00 94 1014.4
20260906090403 54 360 0.0 0.0 0.00 0.01 0.00 94 1014.4
20260906085403 54 360 0.0 0.0 0.00 0.01 0.00 93 1014.4
20260906084424 54 360 0.0 0.0 0.00 0.01 0.00 93 1014.3
20260906083423 54 360 0.0 0.0 0.00 0.01 0.00 93 1014.2
20260906082403 54 360 0.0 0.0 0.00 0.01 0.00 93 1014.1
20260906081402 54 360 0.0 0.0 0.00 0.01 0.00 93 1014.1
20260906080424 54 360 0.0 0.0 0.00 0.01 0.00 93 1014.0
20260906075445 54 360 0.0 0.0 0.00 0.01 0.00 93 1014.0
20260906074403 54 360 0.0 2.0 0.00 0.01 0.00 93 1014.0
20260906073403 54 360 0.0 0.0 0.00 0.01 0.00 93 1013.7
20260906072423 54 359 0.0 1.0 0.00 0.01 0.00 93 1013.8
20260906071403 55 359 0.0 3.0 0.00 0.01 0.00 93 1013.7
20260906070402 55 360 0.0 0.0 0.00 0.01 0.00 93 1013.6
20260906065424 55 360 0.0 0.0 0.00 0.01 0.00 93 1013.6
20260906064403 55 360 0.0 0.0 0.00 0.01 0.00 93 1013.6
20260906063447 55 360 0.0 0.0 0.00 0.01 0.00 93 1013.5
20260906062425 55 360 0.0 0.0 0.00 0.01 0.00 93 1013.4
20260906061405 55 360 0.0 0.0 0.00 0.01 0.00 93 1013.4
20260906060404 55 360 0.0 0.0 0.00 0.01 0.00 93 1013.5
20260906055426 56 360 0.0 0.0 0.00 0.01 0.00 93 1013.5
20260906054426 56 360 0.0 0.0 0.00 0.01 0.00 92 1013.5
20260906053405 56 360 0.0 0.0 0.00 0.01 0.00 92 1013.5
20260906052426 55 360 0.0 0.0 0.00 0.01 0.00 92 1013.4
20260906051405 55 360 0.0 0.0 0.00 0.01 0.00 92 1013.4
20260906050405 55 360 0.0 0.0 0.00 0.01 0.00 92 1013.3
20260906045405 56 360 0.0 0.0 0.00 0.01 0.00 91 1013.2
20260906044426 56 360 0.0 0.0 0.00 0.01 0.00 91 1013.2
20260906043404 56 360 0.0 0.0 0.00 0.01 0.00 91 1013.2
20260906042405 56 360 0.0 0.0 0.00 0.01 0.00 91 1013.1
20260906041425 56 360 0.0 0.0 0.00 0.01 0.00 91 1013.2
20260906040405 56 360 0.0 0.0 0.00 0.01 0.00 90 1013.0
20260906035405 56 360 0.0 0.0 0.00 0.01 0.01 90 1013.1
20260906034405 57 5 0.0 4.0 0.00 0.01 0.01 90 1013.1
20260906033405 57 5 1.0 5.0 0.00 0.01 0.01 90 1012.9
20260906032404 57 50 1.0 5.0 0.00 0.01 0.01 89 1012.9
20260906031405 58 57 0.0 3.0 0.00 0.01 0.01 89 1012.9
20260906030405 58 57 0.0 4.0 0.00 0.01 0.01 89 1012.8
20260906025404 58 46 0.0 9.0 0.01 0.01 0.01 89 1012.7
20260906024447 58 337 1.0 9.0 0.00 0.00 0.00 89 1013.3
20260906023405 59 326 0.0 8.0 0.00 0.00 0.00 89 1013.2
20260906022405 59 9 0.0 4.0 0.00 0.00 0.00 89 1013.3
20260906021405 59 305 1.0 7.0 0.00 0.00 0.00 89 1013.2
20260906020405 59 330 0.0 4.0 0.00 0.00 0.00 90 1013.1
20260906015426 60 349 1.0 5.0 0.00 0.00 0.00 90 1013.2
20260906014405 60 346 0.0 0.0 0.00 0.00 0.00 91 1013.1
20260906013404 60 346 0.0 0.0 0.00 0.00 0.00 91 1013.1
20260906012405 60 346 0.0 0.0 0.00 0.00 0.00 91 1013.0
20260906011404 60 346 0.0 0.0 0.00 0.00 0.00 90 1012.9
20260906010405 60 346 0.0 1.0 0.00 0.00 0.00 90 1012.9
20260906005404 60 346 0.0 2.0 0.00 0.00 0.00 90 1012.8
20260906004405 60 346 0.0 0.0 0.00 0.00 0.00 90 1012.8
20260906003404 60 345 0.0 3.0 0.00 0.00 0.00 90 1012.7
20260906002405 60 346 0.0 4.0 0.00 0.00 0.00 90 1012.5
20260906001425 60 347 0.0 3.0 0.00 0.00 0.00 90 1012.4
20260906000405 60 347 0.0 1.0 0.00 0.00 0.00 90 1012.4
20260905235405 61 347 0.0 2.0 0.00 0.00 0.00 90 1012.4
20260905234405 61 347 0.0 1.0 0.00 0.00 0.00 89 1012.4
20260905233404 61 348 0.0 3.0 0.00 0.00 0.00 89 1012.3
20260905232404 61 347 0.0 5.0 0.00 0.00 0.00 89 1012.3
20260905231405 61 349 0.0 3.0 0.00 0.00 0.00 88 1012.2
20260905230404 62 349 0.0 4.0 0.00 0.00 0.00 88 1012.2
20260905225405 62 339 0.0 5.0 0.00 0.00 0.00 88 1012.2
20260905224404 62 343 0.0 4.0 0.00 0.00 0.00 87 1012.3
20260905223426 62 343 1.0 5.0 0.00 0.00 0.00 86 1012.3
20260905222404 62 322 0.0 8.0 0.00 0.00 0.00 85 1012.1
20260905221405 63 339 2.0 5.0 0.00 0.00 0.00 85 1012.1
20260905220405 64 357 2.0 12.0 0.00 0.00 0.00 84 1012.0
20260905215404 64 5 0.0 6.0 0.00 0.00 0.00 84 1011.8
20260905214404 65 345 4.0 11.0 0.00 0.00 0.00 83 1011.8
20260905213405 66 354 0.0 6.0 0.00 0.00 0.00 83 1011.5
20260905212404 66 342 0.0 11.0 0.00 0.00 0.00 82 1011.5
20260905211404 67 23 1.0 5.0 0.00 0.00 0.00 81 1011.3
20260905210405 67 45 0.0 4.0 0.00 0.00 0.00 82 1011.2
20260905205404 68 57 0.0 12.0 0.00 0.00 0.00 81 1011.1
20260905204405 68 44 0.0 5.0 0.00 0.00 0.00 81 1011.1
20260905203404 69 338 0.0 2.0 0.00 0.00 0.00 80 1011.0
20260905202404 69 337 0.0 9.0 0.00 0.00 0.00 79 1011.1
20260905201404 69 22 0.0 4.0 0.00 0.00 0.00 82 1011.1
20260905200404 68 2 3.0 5.0 0.00 0.00 0.00 80 1011.0
20260905195404 69 353 2.0 5.0 0.00 0.00 0.00 77 1010.9
20260905194404 70 226 0.0 5.0 0.00 0.00 0.00 80 1010.9
20260905193404 69 302 2.0 4.0 0.00 0.00 0.00 82 1010.9
20260905192404 68 339 1.0 6.0 0.00 0.00 0.00 82 1010.9
20260905191426 68 261 1.0 4.0 0.00 0.00 0.00 81 1010.9
20260905190404 68 317 0.0 9.0 0.00 0.00 0.00 81 1010.9
20260905185403 68 290 0.0 3.0 0.00 0.00 0.00 83 1011.0
20260905184425 68 359 0.0 5.0 0.00 0.00 0.00 82 1011.0
20260905183404 67 2 2.0 5.0 0.00 0.00 0.00 82 1011.1
20260905182425 67 237 0.0 3.0 0.00 0.00 0.00 83 1011.1
20260905181404 68 263 0.0 3.0 0.00 0.00 0.00 81 1011.1
20260905180404 69 273 0.0 10.0 0.00 0.00 0.00 79 1011.0
20260905175405 70 263 4.0 9.0 0.00 0.00 0.00 82 1011.0
20260905174404 69 45 0.0 4.0 0.00 0.00 0.00 82 1011.0
20260905173404 71 244 2.0 10.0 0.00 0.00 0.00 77 1011.1
20260905172425 70 251 2.0 8.0 0.00 0.00 0.00 81 1011.0
20260905171404 68 9 1.0 7.0 0.00 0.00 0.00 82 1011.1
20260905170404 67 360 0.0 7.0 0.00 0.00 0.00 84 1011.2
20260905165404 67 48 0.0 3.0 0.00 0.00 0.00 84 1011.2
20260905164405 67 50 0.0 5.0 0.00 0.00 0.00 79 1011.3
20260905163404 69 261 0.0 8.0 0.00 0.00 0.00 80 1011.2
20260905162405 68 268 0.0 0.0 0.00 0.00 0.00 82 1011.1
20260905161425 69 268 0.0 6.0 0.00 0.00 0.00 79 1011.2
20260905160404 69 354 1.0 5.0 0.00 0.00 0.00 76 1011.2
20260905155404 69 333 4.0 11.0 0.00 0.00 0.00 77 1011.1
20260905154404 67 351 1.0 5.0 0.00 0.00 0.00 81 1011.2
20260905153404 67 328 2.0 6.0 0.00 0.00 0.00 80 1011.2
20260905152404 67 327 1.0 8.0 0.00 0.00 0.00 80 1011.1
20260905151404 67 330 0.0 10.0 0.00 0.00 0.00 81 1011.2
20260905150404 68 9 0.0 5.0 0.00 0.00 0.00 81 1011.2
20260905145404 67 358 1.0 4.0 0.00 0.00 0.00 83 1011.2
20260905144404 66 3 0.0 7.0 0.00 0.00 0.00 83 1011.2
20260905143404 67 355 2.0 10.0 0.00 0.00 0.00 81 1011.2
20260905142404 68 15 0.0 5.0 0.00 0.00 0.00 84 1011.1
20260905141404 66 354 0.0 5.0 0.00 0.00 0.00 86 1011.0
20260905140404 66 280 1.0 3.0 0.00 0.00 0.00 86 1010.9
20260905135404 65 320 0.0 2.0 0.00 0.00 0.00 90 1011.0
20260905134404 64 320 0.0 5.0 0.00 0.00 0.00 94 1010.9
20260905133404 62 336 0.0 6.0 0.00 0.00 0.00 94 1010.9
20260905132425 62 333 0.0 2.0 0.00 0.00 0.00 95 1010.9
20260905131403 61 332 0.0 2.0 0.00 0.00 0.00 95 1010.8
20260905130404 61 333 0.0 5.0 0.00 0.00 0.00 95 1010.8
20260905125425 61 346 1.0 5.0 0.00 0.00 0.00 95 1010.8
20260905124404 61 320 0.0 2.0 0.00 0.00 0.00 95 1010.7
20260905123404 60 9 0.0 2.0 0.00 0.00 0.00 95 1010.5
20260905122404 60 9 0.0 7.0 0.00 0.00 0.00 95 1010.5
20260905121404 60 324 0.0 5.0 0.00 0.08 0.00 95 1010.5
20260905120425 60 354 0.0 5.0 0.00 0.00 0.00 95 1010.3
20260905115404 60 348 0.0 5.0 0.00 0.00 0.00 95 1010.4
20260905114403 60 354 2.0 8.0 0.00 0.00 0.00 95 1010.3
20260905113404 60 9 1.0 4.0 0.00 0.00 0.00 95 1010.2
20260905112403 60 12 0.0 0.0 0.00 0.00 0.00 95 1010.0
20260905111404 60 12 0.0 0.0 0.00 0.00 0.00 95 1010.0
20260905110404 60 12 0.0 6.0 0.00 0.00 0.00 95 1010.0
20260905105404 60 344 0.0 3.0 0.00 0.00 0.00 95 1009.9
20260905104425 60 346 0.0 4.0 0.00 0.00 0.00 95 1009.8
20260905103404 60 255 0.0 4.0 0.00 0.00 0.00 95 1009.8
20260905102425 60 329 0.0 4.0 0.00 0.00 0.00 95 1009.7
20260905101404 60 329 0.0 0.0 0.00 0.00 0.00 95 1009.6
20260905100424 60 329 0.0 4.0 0.00 0.00 0.00 95 1009.7